When you browse on this site, cookies collect data to enhance your experience and personalize the content and advertising you see.
Visit our Privacy Policy to learn more. By continuing to use the site, you agree to this use of cookies and data.
  • en France
  • Liste des pays
  • À 7 jours
  • Température de l'eau
  • Carte satellitaire
  • Carte météo
  • Widgets météo
  • user-avatar
    Se connecter

    Météo par heure à Childa

    Ce jour, 12 Décembre, Mercredi

    Heure Température Précipitation Vent Pression Humidité
    00:00 +1°C° 0 mm 3 m/s 633 mmHg 75%
    01:00 0°C° 0 mm 3 m/s 633 mmHg 76%
    02:00 0°C° 0 mm 3 m/s 633 mmHg 77%
    03:00 0°C° 0 mm 3 m/s 633 mmHg 78%
    04:00 0°C° 0 mm 3 m/s 634 mmHg 78%
    05:00 0°C° 0 mm 3 m/s 634 mmHg 78%
    06:00 -1°C° 0 mm 3 m/s 634 mmHg 77%
    07:00 0°C° 0 mm 3 m/s 634 mmHg 74%
    08:00 +1°C° 0 mm 3 m/s 634 mmHg 71%
    09:00 +2°C° 0 mm 3 m/s 634 mmHg 67%
    10:00 +2°C° 0.1 mm 3 m/s 634 mmHg 68%
    11:00 +3°C° 0.1 mm 3 m/s 634 mmHg 68%
    12:00 +3°C° 0.1 mm 3 m/s 634 mmHg 68%
    13:00 +3°C° 0.7 mm 3 m/s 633 mmHg 70%
    14:00 +3°C° 0.7 mm 3 m/s 633 mmHg 73%
    15:00 +3°C° 0.7 mm 3 m/s 632 mmHg 75%
    16:00 +3°C° 0.6 mm 3 m/s 632 mmHg 76%
    17:00 +2°C° 0.6 mm 3 m/s 632 mmHg 76%
    18:00 +2°C° 0.6 mm 3 m/s 632 mmHg 77%
    19:00 +2°C° 0.4 mm 3 m/s 632 mmHg 77%
    20:00 +2°C° 0.4 mm 3 m/s 632 mmHg 77%
    21:00 +2°C° 0.4 mm 3 m/s 632 mmHg 78%
    22:00 +2°C° 0.3 mm 3 m/s 632 mmHg 78%
    23:00 +2°C° 0.3 mm 3 m/s 632 mmHg 78%

    Demain, 13 Décembre, Jeudi

    Heure Température Précipitation Vent Pression Humidité
    00:00 +2°C° 0.3 mm 3 m/s 632 mmHg 79%
    01:00 +1°C° 0.1 mm 3 m/s 632 mmHg 79%
    02:00 +1°C° 0.1 mm 3 m/s 632 mmHg 80%
    03:00 0°C° 0.1 mm 3 m/s 632 mmHg 80%
    04:00 0°C° 0 mm 3 m/s 632 mmHg 80%
    05:00 -1°C° 0 mm 3 m/s 632 mmHg 80%
    06:00 -1°C° 0 mm 3 m/s 632 mmHg 80%
    07:00 -1°C° 0.1 mm 3 m/s 633 mmHg 79%
    08:00 -1°C° 0.1 mm 3 m/s 633 mmHg 77%
    09:00 +1°C° 0.1 mm 2 m/s 634 mmHg 75%
    10:00 0°C° 0.2 mm 3 m/s 634 mmHg 76%
    11:00 +1°C° 0.2 mm 3 m/s 634 mmHg 76%
    12:00 +1°C° 0.2 mm 3 m/s 635 mmHg 77%
    13:00 +1°C° 0.3 mm 3 m/s 635 mmHg 78%
    14:00 +1°C° 0.3 mm 3 m/s 635 mmHg 79%
    15:00 0°C° 0.3 mm 3 m/s 636 mmHg 80%
    16:00 +1°C° 0.2 mm 2 m/s 636 mmHg 82%
    17:00 -1°C° 0.2 mm 2 m/s 636 mmHg 84%
    18:00 -2°C° 0.2 mm 2 m/s 636 mmHg 86%
    19:00 -3°C° 0 mm 2 m/s 637 mmHg 84%
    20:00 -4°C° 0 mm 2 m/s 637 mmHg 82%
    21:00 -4°C° 0 mm 2 m/s 637 mmHg 80%
    22:00 -5°C° 0 mm 2 m/s 637 mmHg 77%
    23:00 -5°C° 0 mm 2 m/s 637 mmHg 73%

    Après-demain, 14 Décembre, Vendredi

    Heure Température Précipitation Vent Pression Humidité
    00:00 -6°C° 0 mm 2 m/s 637 mmHg 70%
    01:00 -6°C° 0 mm 2 m/s 638 mmHg 69%
    02:00 -6°C° 0 mm 2 m/s 638 mmHg 67%
    03:00 -6°C° 0 mm 2 m/s 638 mmHg 66%
    04:00 -6°C° 0 mm 2 m/s 638 mmHg 66%
    05:00 -7°C° 0 mm 2 m/s 638 mmHg 66%
    06:00 -7°C° 0 mm 2 m/s 639 mmHg 66%
    07:00 -6°C° 0 mm 2 m/s 639 mmHg 65%
    08:00 -5°C° 0 mm 2 m/s 640 mmHg 64%
    09:00 -4°C° 0 mm 2 m/s 640 mmHg 64%
    10:00 -3°C° 0 mm 2 m/s 640 mmHg 62%
    11:00 -2°C° 0 mm 2 m/s 640 mmHg 61%
    12:00 -1°C° 0 mm 2 m/s 640 mmHg 59%
    13:00 -2°C° 0 mm 2 m/s 640 mmHg 60%
    14:00 -2°C° 0 mm 2 m/s 640 mmHg 61%
    15:00 -3°C° 0 mm 2 m/s 640 mmHg 62%
    16:00 -3°C° 0 mm 2 m/s 640 mmHg 64%
    17:00 -4°C° 0 mm 2 m/s 640 mmHg 66%
    18:00 -3°C° 0 mm 1 m/s 640 mmHg 68%
    19:00 -4°C° 0 mm 1 m/s 640 mmHg 69%
    20:00 -6°C° 0 mm 2 m/s 640 mmHg 69%
    21:00 -6°C° 0 mm 2 m/s 640 mmHg 69%
    22:00 -6°C° 0 mm 2 m/s 640 mmHg 70%
    23:00 -7°C° 0 mm 2 m/s 640 mmHg 70%

    15 Décembre, Samedi

    Heure Température Précipitation Vent Pression Humidité
    00:00 -7°C° 0 mm 2 m/s 640 mmHg 70%
    01:00 -7°C° 0 mm 2 m/s 640 mmHg 70%
    02:00 -8°C° 0 mm 2 m/s 640 mmHg 70%
    03:00 -8°C° 0 mm 2 m/s 640 mmHg 69%
    04:00 -8°C° 0 mm 2 m/s 640 mmHg 67%
    05:00 -8°C° 0 mm 2 m/s 640 mmHg 66%
    06:00 -9°C° 0 mm 2 m/s 640 mmHg 64%
    07:00 -8°C° 0 mm 2 m/s 641 mmHg 61%
    08:00 -4°C° 0 mm 1 m/s 641 mmHg 58%
    09:00 -3°C° 0 mm 1 m/s 642 mmHg 55%
    10:00 -2°C° 0 mm 1 m/s 642 mmHg 52%
    11:00 -1°C° 0 mm 1 m/s 642 mmHg 49%
    12:00 0°C° 0 mm 1 m/s 642 mmHg 46%
    13:00 0°C° 0 mm 1 m/s 642 mmHg 48%
    14:00 0°C° 0 mm 1 m/s 642 mmHg 50%
    15:00 0°C° 0 mm 1 m/s 642 mmHg 52%
    16:00 -2°C° 0 mm 1 m/s 642 mmHg 51%
    17:00 -3°C° 0 mm 1 m/s 642 mmHg 51%
    18:00 -6°C° 0 mm 2 m/s 642 mmHg 50%
    19:00 -6°C° 0 mm 2 m/s 642 mmHg 48%
    20:00 -6°C° 0 mm 2 m/s 642 mmHg 46%
    21:00 -6°C° 0 mm 2 m/s 642 mmHg 44%
    22:00 -6°C° 0 mm 2 m/s 642 mmHg 44%
    23:00 -6°C° 0 mm 2 m/s 642 mmHg 45%

    16 Décembre, Dimanche

    Heure Température Précipitation Vent Pression Humidité
    00:00 -6°C° 0 mm 2 m/s 642 mmHg 45%
    01:00 -6°C° 0 mm 2 m/s 642 mmHg 46%
    02:00 -6°C° 0 mm 2 m/s 642 mmHg 47%
    03:00 -5°C° 0 mm 2 m/s 642 mmHg 48%
    04:00 -5°C° 0 mm 2 m/s 642 mmHg 48%
    05:00 -5°C° 0 mm 2 m/s 642 mmHg 49%
    06:00 -5°C° 0 mm 2 m/s 642 mmHg 49%
    07:00 -4°C° 0 mm 2 m/s 642 mmHg 49%
    08:00 -3°C° 0 mm 2 m/s 643 mmHg 49%
    09:00 -2°C° 0 mm 2 m/s 643 mmHg 50%
    10:00 -1°C° 0 mm 2 m/s 643 mmHg 49%
    11:00 +2°C° 0 mm 2 m/s 643 mmHg 49%
    12:00 +3°C° 0 mm 2 m/s 643 mmHg 49%
    13:00 +2°C° 0 mm 2 m/s 643 mmHg 51%
    14:00 +2°C° 0 mm 2 m/s 643 mmHg 53%
    15:00 +3°C° 0 mm 1 m/s 642 mmHg 56%
    16:00 -1°C° 0 mm 2 m/s 642 mmHg 54%
    17:00 -2°C° 0 mm 2 m/s 642 mmHg 52%
    18:00 -3°C° 0 mm 2 m/s 641 mmHg 51%
    19:00 -3°C° 0 mm 2 m/s 641 mmHg 51%
    20:00 -3°C° 0 mm 2 m/s 641 mmHg 51%
    21:00 -3°C° 0 mm 2 m/s 641 mmHg 50%
    22:00 -3°C° 0 mm 2 m/s 641 mmHg 52%
    23:00 -3°C° 0 mm 2 m/s 641 mmHg 54%

    17 Décembre, Lundi

    Heure Température Précipitation Vent Pression Humidité
    00:00 -3°C° 0 mm 2 m/s 641 mmHg 55%
    01:00 -3°C° 0 mm 2 m/s 640 mmHg 56%
    02:00 -3°C° 0 mm 2 m/s 640 mmHg 57%
    03:00 -3°C° 0 mm 2 m/s 640 mmHg 58%
    04:00 -3°C° 0 mm 2 m/s 640 mmHg 59%
    05:00 -3°C° 0 mm 2 m/s 640 mmHg 60%
    06:00 -3°C° 0 mm 2 m/s 640 mmHg 61%
    07:00 0°C° 0 mm 1 m/s 640 mmHg 61%
    08:00 +1°C° 0 mm 1 m/s 641 mmHg 62%
    09:00 +1°C° 0 mm 1 m/s 641 mmHg 62%
    10:00 +2°C° 0 mm 1 m/s 641 mmHg 61%
    11:00 +3°C° 0 mm 1 m/s 641 mmHg 59%
    12:00 +4°C° 0 mm 1 m/s 641 mmHg 58%
    13:00 +4°C° 0 mm 1 m/s 641 mmHg 61%
    14:00 +3°C° 0 mm 1 m/s 640 mmHg 64%
    15:00 +3°C° 0 mm 1 m/s 640 mmHg 66%
    16:00 +2°C° 0 mm 1 m/s 640 mmHg 67%
    17:00 +1°C° 0 mm 1 m/s 640 mmHg 67%
    18:00 -3°C° 0 mm 2 m/s 640 mmHg 68%
    19:00 -3°C° 0 mm 2 m/s 640 mmHg 66%
    20:00 -3°C° 0 mm 2 m/s 640 mmHg 63%
    21:00 -3°C° 0 mm 2 m/s 640 mmHg 61%
    22:00 -3°C° 0 mm 2 m/s 640 mmHg 61%
    23:00 -3°C° 0 mm 2 m/s 640 mmHg 60%
    Voir plus